Location: The Saddle
(36.8333°N, 80.3417°W)
Time: 08:38:39
(UTC-05:00)

Vanguard 2 Rocket - Pass Details

Date: 14 December 2023
Orbit: 555 x 3309 km, 32.9° (Epoch: 02 March)

Event Time Altitude Azimuth Distance (km) Brightness Sun altitude
Rises 18:37:58 0° 283° (WNW) 6,887 12.4 -17.8°
Reaches altitude 10° 18:42:47 10° 277° (W) 6,072 12.1 -18.8°
Maximum altitude 19:00:03 39° 218° (SW) 4,253 10.6 -22.1°
Drops below altitude 10° 19:15:38 10° 157° (SSE) 5,459 10.7 -25.2°
Sets 19:19:45 0° 149° (SSE) 6,151 10.9 -26.0°
